Regional Weather Roundup
Issued by NWS Wakefield, VA

Home | Current Version | Previous Version | Graphics & Text | Print | Product List | Glossary On
Versions: 1 2 3 4 5 6 7 8 9 10 11 12 13 14 15 16 17 18 19 20 21 22 23 24 25 26 27 28 29 30 31 32 33 34 35 36 37 38 39 40 41 42 43 44 45 46 47 48 49 50
983
ASUS41 KAKQ 231515
RWRAKQ

REGIONAL WEATHER ROUNDUP
NATIONAL WEATHER SERVICE WAKEFIELD VA
1000 AM EST MON JAN 23 2017

Note: "fair" indicates few or no clouds below 12,000 feet with no
significant weather and/or obstructions to visibility. * = Denotes
station may not report precipitation (e.g., rain,snow,etc.),
thunder or fog.

VAZ042-051-052>054-056-231600-
NORTHERN VIRGINIA

CITY           SKY/WX    TMP DP  RH WIND       PRES   REMARKS
WASH NATIONAL  LGT RAIN  46  43  89 NE33G44   29.47S FOG
DULLES         LGT RAIN  44  40  85 NE21G39   29.46F FOG
FORT BELVOIR   LGT RAIN  45  43  90 NE17G35   29.45S FOG
QUANTICO       LGT RAIN  47  45  93 E29G44    29.42F FOG
FREDERICKSBRG* HVY RAIN  47  47 100 NE17G28   29.41R
STAFFORD*      LGT RAIN  45  45 100 NE23G33   29.44S
WARRENTON      LGT RAIN  46  42  85 NE18G38   29.41S
CULPEPER*      DRIZZLE   46  45  95 NE10G20   29.42S
MANASSAS*      RAIN     N/A N/A N/A E29G37    29.46S
LEESBURG*      LGT RAIN  45  45 100 NE20G28   29.50F
WINCHESTER     LGT RAIN  41  39  93 NE12G18   29.50F
FRONT ROYAL*   CLOUDY    43  41  93 NE10G22   29.47F
LURAY*         RAIN      43  43 100 NE20G29   29.41F
$$

VAZ048-049-060>072-079>083-231600-
CENTRAL AND SOUTH CENTRAL VIRGINIA

CITY           SKY/WX    TMP DP  RH WIND       PRES   REMARKS
RICHMOND       CLOUDY    53  52  96 E17G24    29.29F FOG
CHESTERFIELD*  CLOUDY    54  37  54 E12G20    29.30R
PETERSBURG*    RAIN      54  54 100 E8        29.28R
HANOVER        LGT RAIN  51  49  92 NE13G22   29.33R FOG
TAPPAHANNOCK*  LGT RAIN  51  51 100 NE18G31   29.33S
QUINTON*       CLOUDY    52  52 100 NE13G21   29.30R FOG
CHARLOTTSVILLE RAIN      47  44  90 NE22G32   29.33S FOG
GORDONSVILLE*  CLOUDY    46  46  99 NE15G28   29.37R FOG
ORANGE*        RAIN      46  46 100 N17G23    29.39R
LOUISA*        HVY RAIN  50  48  93 NE16G30   29.32R
BUMPASS*       CLOUDY    47  47 100 E12G22    29.34R
FARMVILLE*     RAIN      51  51 100 N12G21    29.29R
CREWE*         CLOUDY    51  51 100 N5        29.28R
FORT PICKETT*  CLOUDY   N/A N/A N/A N5        29.27S
CHASE CITY*    CLOUDY    52  50  95 CALM      29.27R
CLARKSVILLE*   CLOUDY    52  52 100 E3        29.26R
SOUTH HILL*    CLOUDY    53  53 100 SE3       29.32R
LAWRENCEVILLE* CLOUDY    53  52  96 E3        29.27R
EMPORIA*       LGT RAIN  54  54 100 CALM      29.28R VSB 3/4
$$

VAZ088>098-231600-
SOUTHEAST VIRGINIA

CITY           SKY/WX    TMP DP  RH WIND       PRES   REMARKS
NORFOLK        CLOUDY    60  59  96 SE10G22   29.26S
VIRGINIA BEACH CLOUDY    57  56  96 E13       29.25F FOG
NORFOLK NAVAL  CLOUDY    55  54  96 E6        29.28S FOG
WEST POINT*    CLOUDY    52  52  98 E22G35    29.30R
SALUDA*        CLOUDY    50  50 100 E17G29    29.31S
NEWPORT NEWS   LGT RAIN  54  54 100 E7        29.28S FOG
LANGLEY AFB    LGT RAIN  54  54 100 E14       29.27S
FORT EUSTIS    CLOUDY    55  54  94 VRB7      29.25F
WILLIAMSBURG*  CLOUDY    55  55 100 E14G23    29.30R
HR EXEC AP*    CLOUDY    61  57  88 SE12      29.25S
FRANKLIN*      CLOUDY    60  58  94 SE6       29.27R
US460-WAKEFLD  CLOUDY    56  56 100 E5        29.26S FOG
$$

VAZ020-022-025-037-045-231600-
WEST CENTRAL AND SOUTHWEST VIRGINIA

CITY           SKY/WX    TMP DP  RH WIND       PRES   REMARKS
STAUNTON*      LGT RAIN  43  41  93 N6G23     29.42R
WAYNESBORO*    CLOUDY    44  42  93 W6        29.40R VSB 1/4
HOT SPRINGS VA NOT AVBL
LYNCHBURG      RAIN      47  45  93 NE22G32   29.31R FOG
DANVILLE       CLOUDY    50  50 100 NE9       29.27R FOG
SOUTH BOSTON*  CLOUDY    51  50  95 CALM      29.27R
MARTINSVILLE   DRIZZLE   49  47  95 N7        29.30R
ROANOKE        LGT RAIN  48  46  93 NE13      29.33R
BLACKSBURG     DRIZZLE   46  45  97 NE9       29.33R
DUBLIN*        LGT RAIN  47  47 100 NE7       29.31R
MARION*        RAIN      47  46  96 CALM      29.31R
HILLSVILLE*    CLOUDY    45  43  95 E8G20     29.26R
RICHLANDS*     RAIN      45  44  98 NE3       29.31R
WISE*          LGT RAIN  46  46 100 N12       29.33R
ABINGDON*      LGT RAIN  50  47  92 NE8       29.28R
$$

MDZ021>025-VAZ099-100-231600-
SOUTHERN MARYLAND AND THE DELMARVA PENINSULA

CITY           SKY/WX    TMP DP  RH WIND       PRES   REMARKS
PATUXENT RIVER LGT RAIN  47  46  97 NE29G39   29.39F FOG
BAY BRIDGE APT LGT RAIN  45  43  93 NE21G35   29.49F FOG
LEONARDTOWN    CLOUDY    45  43  93 E15G30    29.41F
DOVER          LGT RAIN  43  43 100 NE16G30   29.57R FOG
GEORGETOWN     LGT RAIN  46 N/A N/A NE28G53   29.50F
EASTON         LGT RAIN  46  43  87 E26G43    29.52F
CAMBRIDGE      CLOUDY    45  43  93 NE17G37   29.44F
SALISBURY      LGT RAIN  49  48  97 NE26G47   29.42F FOG
OCEAN CITY     LGT RAIN  50  49  96 E29G40    29.44F FOG
WALLOPS ISLAND LGT RAIN  51  51 100 E32G46    29.36F FOG
ACCOMACK*      RAIN      53  51  94 E28G39    29.33F
$$

NCZ012>017-030>032-231600-
NORTH CENTRAL AND EASTERN NORTH CAROLINA

CITY           SKY/WX    TMP DP  RH WIND       PRES   REMARKS
ROANOKE RAPIDS CLOUDY    55  55 100 S5        29.28R
RALEIGH        PTSUNNY   53  49  86 W14       29.28R
ELIZABETH CITY CLOUDY    60  58  92 S8        29.27R
AHOSKIE*         N/A     57  56  95 S8        29.28R
EDENTON*       CLOUDY    60  58  91 SW10      29.29R
CURRITUCK*     CLOUDY    59  59 100 SE6       29.27S
KILL DEVIL HLS NOT AVBL
MANTEO         CLOUDY    57  57 100 SW10      29.30R
CAPE HATTERAS  MOSUNNY   62  55  77 SW10      29.32S HAZE
TARBORO*       NOT AVBL
GOLDSBORO      SUNNY     58  56  92 SW16      29.28R
WASHINGTON     MOSUNNY   58  52  80 SW16G22     N/A
GREENVILLE     MOSUNNY   59  52  77 SW15G21   29.34R
NEW BERN       MOSUNNY   59  52  77 SW12      29.33R
WILMINGTON     SUNNY     59  51  75 SW10      29.32F
$$

VAZ048-231600-
ELSEWHERE

CITY           SKY/WX    TMP DP  RH WIND       PRES   REMARKS
HARRISBURG PA  CLOUDY    41  38  89 E12G22    29.66S
BALTIMORE      DRIZZLE   43  42  97 NE28G39   29.55F FOG
ANNAPOLIS      LGT RAIN  46  41  82 NE17G28   29.52F
ANDREWS AFB    LGT RAIN  44  42  94 E28G39    29.44F FOG
PHILADELPHIA   CLOUDY    40  36  86 E25G39    29.70S
HENDERSON NC   CLOUDY    52  51  97 S3        29.26S
GREENSBORO     CLOUDY    51  50  96 SW8       29.24R
ROCKY MOUNT    SUNNY     57  51  80 SW12G20   29.29R
$$

VAZ100-231600-
MARINE

STATION/POSITION TIME  TEMP    WIND        PRES    WAVE   SWELL
                       AIR SEA DIR/SP/G            HT/PER HT/PER
                 (UTC) (F)     (DEG/KT/KT) (MB)    (FT/S) (FT/S)
CAPE MAY NJ      1442   44 44   50/ 11/ 18 1000.5R
LEWES DE         1442   45 42   70/ 38/ 43  999.1F
OCEAN-CITY-INLET 1442   50 43   80/ 18/ 28  997.5F
WACHAPREAGUE VA  1442   51 49   50/ 23/ 26  993.1F
THOMAS POINT MD  1500   44 41   60/ 29/ 39   N/A
GOOSES REEF MD   1500   45     100/ 29/ 37  997.1    4/ 4
COVE POINT MD    1442   47      90/ 31/ 43  996.6F
SOLOMONS ISLAND  1442   47 42   50/ 26/ 32   N/A
BISHOPS HEAD MD  1448   49 44   60/ 23/ 31  995.1F
PINEY POINT MD   1448           80/ 21/ 31   N/A
POTOMAC MD       1500   47 42   80/ 25/ 31  992.7    3/ 3
CAMBRIDGE MD     1442   46 43   60/ 30/ 39  996.4F
LEWISETTA VA     1442   48 45   80/ 19/ 28  993.5F
RAPPAHANNOCK LGT 1448           70/ 35/ 39  992.4F
STINGRAY PT      1500   48      80/ 23/ 29  992.2    5/ 4
YORK RVR RNG VA  1442   50     110/ 22/ 25  990.5F
YORKTOWN VA      1442   50 44  100/ 13/ 20  991.6R
JAMESTOWN VA     1500   53 48   80/ 12/ 16   N/A     0
DOMINION TERM VA 1442   51      80/ 12/ 17  991.2F
CHES BAY BRIDGE  1436   53 46  100/ 14/ 16  991.1S
CAPE HENRY VA    1436   55     120/ 16/ 24   N/A
WILLOUBY STN VA  1436   51      90/ 13/ 16  991.9F
S CRANEY ISL VA  1436   57     120/ 11/ 15  990.7F
CAPE HENRY BUOY  1442      48                N/A     7/ 9   2/13
OFFSHORE WE BUOY 1451      48                N/A     7/ 8   3/11
64NM E OF VA BCH 1450   62 56   80/ 19/ 23  990.6F   7/ 8   5/ 8
DUCK PIER NC     1436   55 46  160/ 12/ 12  990.6S
44100 DUCK FRF   1405      49                N/A     5/ 7   2/13
44056 DUCK FRF   1500      46                N/A     4/13   2/13
OREGON INLET NC  1436   53 50  200/ 13/ 15  992.0R
HATTERAS NC      1436   62 56  210/ 10/ 15  992.5R
DIAMOND SHLS NC  1450   68 76  230/ 23/ 27  992.8R   7/14   5/14
$$




USA.gov is the U.S. government's official web portal to all federal, state and local government web resources and services.